Home   Weather   Panama   Past weeks
Flag for Panama

Past Weather in Panama, Panama — Yesterday and Last 2 Weeks

Now
75 °F

Partly cloudy.


Feels Like: 73 °F
Forecast: 76 / 83 °F
Wind: 2 mph from North

Location: Panama Airport

Current Time: Nov 15, 2018 at 5:35:02 am

Latest Report: Nov 15, 2018 at 5:00 am


Visibility: N/A

Pressure: 29.80 "Hg

Humidity: 100%

Dew Point: 75 °F

Location of PanamaLocation

Past Weather in Panama — Graph

°F

Panama Temperature Yesterday

Maximum temperature yesterday: 86 °F (at 11:00 am)
Minimum temperature yesterday: 77 °F (at 4:00 am)
Average temperature yesterday: 79 °F

High & Low Weather Summary for the Past Weeks

 TemperatureHumidityPressure
High90 °F (Oct 31, 12:00 pm)100% (Oct 31, 6:00 am)29.92 "Hg (Oct 31, 6:00 am)
Low72 °F (Nov 6, 4:00 am)55% (Oct 31, 12:00 pm)29.68 "Hg (Nov 12, 5:00 pm)
Average80 °F87%29.81 "Hg
* Reported Oct 31 4:00 am — Nov 15 4:00 am, Panama. Weather by CustomWeather, © 2018

Note: Actual official high and low records may vary slightly from our data, if they occured in-between our weather recording intervals... More about our weather records

Advertising

Panama Weather History for the Previous 24 Hours

Scroll right to see more
 ConditionsComfort  
Time TempWeatherWind HumidityBarometerVisibility
4:00 am
Thu, Nov 15
75 °FPassing clouds.No wind94%29.80 "HgN/A
3:00 am77 °FPassing clouds.5 mph89%29.83 "HgN/A
2:00 am77 °FPassing clouds.6 mph89%29.86 "HgN/A
1:00 am77 °FPassing clouds.5 mph89%29.86 "HgN/A
12:00 am77 °FPassing clouds.7 mph89%29.86 "HgN/A
11:00 pm
Wed, Nov 14
77 °FPassing clouds.6 mph89%29.86 "HgN/A
10:00 pm77 °FPassing clouds.7 mph89%29.83 "HgN/A
9:00 pm77 °FPassing clouds.5 mph94%29.83 "HgN/A
8:00 pm77 °FPartly cloudy.6 mph89%29.83 "HgN/A
7:00 pm79 °FPartly cloudy.6 mph89%29.80 "HgN/A
6:00 pm79 °FMostly cloudy.5 mph89%29.80 "HgN/A
5:00 pm81 °FBroken clouds.5 mph84%29.77 "HgN/A
4:00 pm79 °FMore clouds than sun.3 mph94%29.80 "HgN/A
3:00 pm79 °FMore clouds than sun.5 mph89%29.83 "HgN/A
2:00 pm81 °FScattered showers. Broken clouds.7 mph84%29.80 "Hg5 mi
1:00 pm81 °FScattered showers. Broken clouds.9 mph84%29.86 "Hg6 mi
12:00 pm84 °FScattered showers. Broken clouds.7 mph79%29.86 "Hg6 mi
11:00 am86 °FScattered clouds.8 mph70%29.86 "HgN/A
10:00 am84 °FScattered clouds.5 mph74%29.86 "HgN/A
9:00 am82 °FScattered clouds.2 mph84%29.83 "HgN/A
8:00 am79 °FBroken clouds.2 mph89%29.83 "HgN/A
7:00 am77 °FBroken clouds.2 mph94%29.80 "HgN/A
6:00 am77 °FPassing clouds.5 mph89%29.77 "HgN/A
5:00 am79 °FPassing clouds.6 mph89%29.77 "HgN/A
Weather by CustomWeather, © 2018

See weather overview